Back to catalog

TELSTAR 1

AliveCommunicationsUNKNOWN
NORAD 340·PAYLOAD·🇺🇸 United States

Launched Jul 10, 1962 from Cape Canaveral Space Force Station

Loading…

Next Passes (next 24 hours)

TLE

FreshSource: Space-Track

Epoch: Sep 12, 2026, 17:49 UTC

1 00340U 62029A   26255.74244267 -.00000104  00000-0 -59445-3 0  9999
2 00340  44.8039 157.1099 2427884 316.2741  54.3429  9.12894679140454

Track TELSTAR 1 in real time with AllMySat

Download on the App Store